This is the latest recevied weather packets stored in our database for station/object KB1WCR. If no packets are shown the sender has not sent any weather packets the latest 10 day(s).
| Time | Temp. | Humidity | Pressure | Rain* | Wind** | Luminosity | Snow |
|---|---|---|---|---|---|---|---|
| 1777649298 | 12.22° C | 67% | 1008.4 hPa | 0 mm | - | 765 W/m² | - |
| 1777648995 | 12.78° C | 63% | 1008.4 hPa | 0 mm | - | 509 W/m² | - |
| 1777648693 | 12.78° C | 67% | 1008.3 hPa | 0 mm | - | 359 W/m² | - |
| 1777648389 | 12.22° C | 61% | 1008.5 hPa | 0 mm | - | 854 W/m² | - |
| 1777648085 | 12.22° C | 63% | 1008.2 hPa | 0 mm | - | 848 W/m² | - |
| 1777647782 | 11.67° C | 62% | 1008.3 hPa | 0 mm | - | 788 W/m² | - |
| 1777647478 | 12.22° C | 61% | 1008.4 hPa | 0 mm | - | 765 W/m² | - |
| 1777646264 | 11.67° C | 57% | 1008.2 hPa | 0 mm | - | 688 W/m² | - |
| 1777645961 | 11.67° C | 59% | 1008.3 hPa | 0 mm | - | 678 W/m² | - |
| 1777645658 | 11.67° C | 65% | 1008.3 hPa | 0 mm | - | 669 W/m² | - |
| 1777645354 | 11.11° C | 62% | 1008.3 hPa | 0 mm | - | 659 W/m² | - |
| 1777645049 | 11.11° C | 59% | 1008.3 hPa | 0 mm | - | 650 W/m² | - |
| 1777644747 | 11.67° C | 63% | 1008.4 hPa | 0 mm | - | 641 W/m² | - |
| 1777644438 | 11.11° C | 65% | 1008.4 hPa | 0 mm | - | 638 W/m² | - |
| 1777644135 | 11.11° C | 62% | 1008.3 hPa | 0 mm | - | 632 W/m² | - |
| 1777643831 | 11.11° C | 60% | 1008.3 hPa | 0 mm | - | 630 W/m² | - |
| 1777643529 | 11.11° C | 65% | 1008.5 hPa | 0 mm | - | 630 W/m² | - |
| 1777643225 | 11.11° C | 68% | 1008.2 hPa | 0 mm | - | 642 W/m² | - |
| 1777642922 | 10.56° C | 66% | 1008.3 hPa | 0 mm | - | 579 W/m² | - |
| 1777642619 | 10.56° C | 68% | 1008.3 hPa | 0 mm | - | 675 W/m² | - |
| 1777642316 | 10.56° C | 69% | 1008.1 hPa | 0 mm | - | 576 W/m² | - |
| 1777642012 | 10.56° C | 73% | 1008.2 hPa | 0 mm | - | 568 W/m² | - |
| 1777641708 | 9.44° C | 76% | 1008.3 hPa | 0 mm | - | 614 W/m² | - |
| 1777641403 | 9.44° C | 76% | 1008.2 hPa | 0 mm | - | 297 W/m² | - |
| 1777641099 | 8.89° C | 78% | 1008.3 hPa | 0 mm | - | 298 W/m² | - |
* Rain latest hour (hover to see other rain measurements)
** Current wind speed in m/s (hover to see current wind gust speed)